Regional Weather Roundup
Issued by NWS

Home | Current Version | Previous Version | Graphics & Text | Print | Product List | Glossary On
Versions: 1 2 3 4 5 6 7 8 9 10 11 12 13 14 15 16 17 18 19 20 21 22 23 24 25 26 27 28 29 30 31 32 33 34 35 36 37 38 39 40 41 42 43 44 45 46 47 48 49 50
000
ASUS45 KABQ 240910
RWRNM
NEW MEXICO REGIONAL WEATHER ROUNDUP
NATIONAL WEATHER SERVICE ALBUQUERQUE NM
300 AM MDT THU MAY 24 2018

NOTE: "FAIR" MEANS FEW OR NO CLOUDS BELOW 12,000 FEET AGL WITH NO
       SIGNIFICANT WEATHER OR OBSTRUCTIONS TO VISION.

      THIS PRODUCT IS RELEASED AS TWO VERSIONS.  ONE VERSION NEAR
      THE TOP OF THE HOUR CONTAINING PRELIMINARY DATA FROM ALBUQUERQUE
      AND OTHER STATIONS.  A FINAL VERSION WITH ADDITIONAL DATA IS
      ISSUED ABOUT 10 MINUTES AFTER THE HOUR.

NMZ501-503-504-510>518-241000-
NORTHWEST PLATEAU/NORTHCENTRAL MOUNTAINS

CITY           SKY/WX    TMP DP  RH WIND       PRES   REMARKS
FARMINGTON     FAIR      50  18  28 NE8       30.11R
LOS ALAMOS     FAIR      56  44  64 S7        30.23R
SANTA FE       FAIR      59  48  67 SE12      30.18R
TAOS           FAIR      51  42  71 E9        30.24R
ANGEL FIRE     FAIR      39  38  96 NE3       30.31S

$$
NMZ402-403-502-505>509-241000-
WESTCENTRAL MOUNTAINS/SOUTHWEST MOUNTAINS

CITY           SKY/WX    TMP DP  RH WIND       PRES   REMARKS
GALLUP         FAIR      46  14  27 NE3       30.22R
GRANTS         FAIR      51  25  36 NW5       30.23R
SILVER CITY    FAIR      54  22  28 N10       30.15S

$$
NMZ407-409-411-412-241000-
SOUTHERN DESERTS

CITY           SKY/WX    TMP DP  RH WIND       PRES   REMARKS
DEMING         FAIR      63  21  20 SW6       30.08S
LAS CRUCES     FAIR      65  44  45 SE5       30.12R
HOLLOMAN AFB   FAIR      68  45  44 S15       30.11R
ALAMOGORDO     FAIR      63  46  55 S7        30.10S
T OR C         FAIR      63  20  19 NW5       30.09R

$$
NMZ519>523-241000-
CENTRAL VALLEYS/CENTRAL HIGHLANDS

CITY           SKY/WX    TMP DP  RH WIND       PRES   REMARKS
ALBUQUERQUE    FAIR      61  21  21 SE9       30.13R
DOUBLE EAGLE   FAIR      54  31  42 N3        30.17R
MORIARTY ARPT  FAIR      56  48  74 S10       30.20R
CLINES CORNERS FAIR      54  43  66 SW17      30.24R
BELEN          FAIR      58  20  22 SW5       30.14R
SOCORRO        FAIR      59  27  29 SW6       30.12R

$$
NMZ524>526-539-540-241000-
SOUTHCENTRAL MOUNTAINS

CITY           SKY/WX    TMP DP  RH WIND       PRES   REMARKS
RUIDOSO        FAIR      54  46  76 CALM      30.27F

$$
NMZ527>531-241000-
NORTHEAST HIGHLANDS/NORTHEAST PLAINS

CITY           SKY/WX    TMP DP  RH WIND       PRES   REMARKS
LAS VEGAS      FAIR      46  44  93 S7        30.23S
RATON          FAIR      55  50  83 S6        30.21R
CLAYTON        FAIR      55  50  83 SW13      30.14R

$$
NMZ532>537-241000-
EASTCENTRAL PLAINS

CITY           SKY/WX    TMP DP  RH WIND       PRES   REMARKS
SANTA ROSA     FAIR      56  49  78 SE6       30.14S
TUCUMCARI      FAIR      58  54  86 NE5       30.10F
CANNON AFB     FAIR      56  56 100 NE6       30.15F
CLOVIS AIRPORT FAIR      57  52  83 NE9       30.14F

$$
NMZ028-029-538-241000-
SOUTHEAST PLAINS

CITY           SKY/WX    TMP DP  RH WIND       PRES   REMARKS
ROSWELL        FAIR      59  54  83 CALM      30.08F
ARTESIA        FAIR      59  57  94 N7        30.09F
CARLSBAD       FAIR      57  54  89 NE7       30.06S
HOBBS          FAIR      59  55  88 N5        30.10F


$$



USA.gov is the U.S. government's official web portal to all federal, state and local government web resources and services.